McCook, NE

7:38 AM CST on January 24, 2017 (GMT -0600)
McCook Municipal

Weather History for KMCK - September, 2013

Change the Weather History Date:

Tuesday, September 24, 2013

  Actual Average Record
Temperature  
Mean Temperature 65 °F 60 °F  
Max Temperature 80 °F 76 °F 96 °F (1954)
Min Temperature 50 °F 45 °F 25 °F (1909)
Growing Degree Days 14 (Base 50)    
Moisture  
Dew Point 43 °F    
Average Humidity 54    
Maximum Humidity 86    
Minimum Humidity 19    
Precipitation  
Precipitation 0.00 in 0.04 in 1.56 in (1955)
Month to date precipitation 1.07 1.15  
Year to date precipitation 10.24 18.86  
Sea Level Pressure  
Sea Level Pressure 29.94 in    
Wind  
Wind Speed 14 mph (NNW)    
Max Wind Speed 18 mph    
Max Gust Speed 28 mph    
Visibility 10 miles    
Events      
T = Trace of Precipitation, MM = Missing Value Source: NWS Daily Summary

Daily Weather History Graph

Daily Weather History Graph

Search for Another Location

Airport or City:

Trip Planner

Search our weather history database for the weather conditions in past years. The results will help you decide how hot, cold, wet, or windy it might be!

Date:

Astronomy

Sep. 24, 2013 Rise Set
Actual Time 7:32 AM CDT 7:35 PM CDT
Civil Twilight 7:05 AM CDT 8:02 PM CDT
Nautical Twilight 6:33 AM CDT 8:34 PM CDT
Astronomical Twilight 6:01 AM CDT 9:06 PM CDT
Moon 10:54 PM CDT 12:48 PM CDT
Length of Visible Light 12h 57m
Length of Day
12h 03m
Waning Gibbous, 73% of the Moon is Illuminated
Sep 24
Waning Gibbous
Sep 26
Last Quarter
Oct 4
New
Oct 11
First Quarter
Oct 18
Full

Hourly Weather History & Observations

Time (CDT) Temp. Dew Point Humidity Pressure Visibility Wind Dir Wind Speed Gust Speed Precip Events Conditions
12:12 AM 57.2 °F 50.0 °F 77% 29.86 in 10.0 mi NW 18.4 mph 27.6 mph N/A   Mostly Cloudy
12:35 AM 57.2 °F 48.2 °F 72% 29.87 in 10.0 mi NW 17.3 mph 25.3 mph N/A   Scattered Clouds
12:53 AM 57.0 °F 48.9 °F 74% 29.83 in 10.0 mi NW 16.1 mph 26.5 mph N/A   Clear
1:53 AM 55.9 °F 48.0 °F 75% 29.85 in 10.0 mi NW 17.3 mph - N/A   Clear
2:53 AM 53.1 °F 48.0 °F 83% 29.90 in 10.0 mi WNW 16.1 mph - N/A   Clear
3:53 AM 53.1 °F 46.9 °F 80% 29.90 in 10.0 mi West 13.8 mph - N/A   Clear
4:53 AM 53.1 °F 48.0 °F 83% 29.93 in 10.0 mi WNW 18.4 mph 25.3 mph N/A   Clear
5:53 AM 52.0 °F 46.9 °F 83% 29.95 in 10.0 mi WNW 15.0 mph - N/A   Clear
6:53 AM 52.0 °F 46.9 °F 83% 29.97 in 10.0 mi WNW 12.7 mph - N/A   Clear
7:53 AM 50.0 °F 46.0 °F 86% 30.00 in 10.0 mi WNW 11.5 mph - N/A   Clear
8:53 AM 54.0 °F 46.9 °F 77% 30.02 in 10.0 mi WNW 10.4 mph - N/A   Clear
9:53 AM 62.1 °F 48.9 °F 62% 30.02 in 10.0 mi WNW 11.5 mph - N/A   Clear
10:53 AM 68.0 °F 46.0 °F 45% 30.02 in 10.0 mi NNW 18.4 mph - N/A   Clear
11:53 AM 71.1 °F 44.1 °F 38% 30.01 in 10.0 mi NNW 17.3 mph 23.0 mph N/A   Clear
12:53 PM 75.0 °F 39.0 °F 27% 30.01 in 10.0 mi North 15.0 mph 24.2 mph N/A   Clear
1:53 PM 77.0 °F 37.0 °F 24% 29.98 in 10.0 mi NW 15.0 mph 23.0 mph N/A   Clear
2:53 PM 78.1 °F 37.0 °F 23% 29.96 in 10.0 mi NNW 12.7 mph 19.6 mph N/A   Clear
3:53 PM 79.0 °F 35.1 °F 20% 29.94 in 10.0 mi North 6.9 mph - N/A   Clear
4:53 PM 79.0 °F 33.1 °F 19% 29.93 in 10.0 mi North 13.8 mph 17.3 mph N/A   Clear
5:53 PM 78.1 °F 34.0 °F 20% 29.92 in 10.0 mi North 8.1 mph - N/A   Clear
6:53 PM 75.0 °F 37.0 °F 25% 29.92 in 10.0 mi ENE 3.5 mph - N/A   Clear
7:53 PM 69.1 °F 37.0 °F 31% 29.93 in 10.0 mi East 5.8 mph - N/A   Clear
8:53 PM 62.1 °F 37.9 °F 41% 29.94 in 10.0 mi ESE 5.8 mph - N/A   Clear
9:53 PM 59.0 °F 37.9 °F 46% 29.93 in 10.0 mi SE 5.8 mph - N/A   Clear
10:53 PM 57.9 °F 39.0 °F 49% 29.91 in 10.0 mi East 4.6 mph - N/A   Clear
11:53 PM 55.0 °F 41.0 °F 59% 29.91 in 6.0 mi SE 5.8 mph - N/A   Haze